Marianna, WV

7:37 PM EST on January 24, 2017 (GMT -0500)
Pineville

Weather History for KI16 - October, 2012

Change the Weather History Date:

Friday, October 26, 2012

  Actual Average (KBKW) Record (KBKW)
Temperature  
Mean Temperature 64 °F -  
Max Temperature 79 °F 59 °F 81 °F (1919)
Min Temperature 49 °F 40 °F 18 °F (1962)
Degree Days  
Heating Degree Days 1    
Growing Degree Days 14 (Base 50)    
Moisture  
Dew Point 54 °F    
Average Humidity 76    
Maximum Humidity 100    
Minimum Humidity 38    
Precipitation  
Precipitation 0.00 in - - ()
Sea Level Pressure  
Sea Level Pressure 30.12 in    
Wind  
Wind Speed - (North)    
Max Wind Speed -    
Max Gust Speed -    
Visibility 10 miles    
Events      
Averages and records for this station are not official NWS values.
T = Trace of Precipitation, MM = Missing Value Source: NWS Daily Summary

Daily Weather History Graph

Daily Weather History Graph

Search for Another Location

Airport or City:

Trip Planner

Search our weather history database for the weather conditions in past years. The results will help you decide how hot, cold, wet, or windy it might be!

Date:

Astronomy

Oct. 26, 2012 Rise Set
Actual Time 7:45 AM EDT 6:34 PM EDT
Civil Twilight 7:18 AM EDT 7:00 PM EDT
Nautical Twilight 6:48 AM EDT 7:31 PM EDT
Astronomical Twilight 6:17 AM EDT 8:01 PM EDT
Moon 4:46 PM EDT (10/26) 4:43 AM EDT (10/26)
Length of Visible Light 11h 42m
Length of Day
10h 48m
Waxing Gibbous, 91% of the Moon is Illuminated
Oct 26
Waxing Gibbous
Oct 29
Full
Nov 6
Last Quarter
Nov 13
New
Nov 20
First Quarter

Hourly Weather History & Observations

Time (EDT) Temp. Dew Point Humidity Pressure Visibility Wind Dir Wind Speed Gust Speed Precip Events Conditions
12:15 AM 53.6 °F 51.3 °F 92% 30.15 in 10.0 mi North - - N/A   Clear
12:35 AM 52.9 °F 50.7 °F 92% 30.15 in 10.0 mi North - - N/A   Clear
12:55 AM 52.7 °F 51.4 °F 95% 30.15 in 10.0 mi North - - N/A   Clear
1:15 AM 52.2 °F 50.9 °F 95% 30.15 in 10.0 mi North - - N/A   Clear
1:55 AM 51.8 °F 50.9 °F 97% 30.15 in 10.0 mi North - - N/A   Clear
2:35 AM 51.1 °F 50.4 °F 97% 30.15 in 10.0 mi North - - N/A   Clear
2:55 AM 50.9 °F 50.0 °F 97% 30.16 in 10.0 mi North - - N/A   Clear
3:15 AM 50.7 °F 49.3 °F 95% 30.16 in 10.0 mi North - - N/A   Clear
3:35 AM 50.4 °F 49.3 °F 96% 30.16 in 10.0 mi North - - N/A   Clear
3:55 AM 50.4 °F 49.8 °F 98% 30.16 in 10.0 mi North - - N/A   Clear
4:15 AM 50.5 °F 50.2 °F 99% 30.16 in 7.0 mi North - - N/A   Clear
4:35 AM 50.2 °F 49.8 °F 99% 30.17 in 7.0 mi North - - N/A   Clear
4:55 AM 50.5 °F 50.4 °F 99% 30.16 in 10.0 mi North - - N/A   Clear
5:15 AM 50.4 °F 50.4 °F 100% 30.16 in 10.0 mi North - - N/A   Clear
5:35 AM 50.0 °F 50.0 °F 100% 30.17 in 7.0 mi North - - N/A   Clear
5:55 AM 49.5 °F 49.5 °F 100% 30.16 in 7.0 mi North - - N/A   Clear
6:15 AM 50.0 °F 49.6 °F 99% 30.17 in 5.0 mi North - - N/A   Clear
6:35 AM 49.3 °F 49.3 °F 100% 30.17 in 10.0 mi North - - N/A   Clear
6:55 AM 49.3 °F 49.3 °F 100% 30.18 in 7.0 mi North - - N/A   Clear
7:15 AM 49.3 °F 49.3 °F 100% 30.18 in 10.0 mi North - - N/A   Scattered Clouds
7:35 AM 50.0 °F 49.8 °F 99% 30.18 in 7.0 mi North - - N/A   Mostly Cloudy
8:15 AM 51.1 °F 51.1 °F 100% 30.19 in 5.0 mi North - - N/A   Mostly Cloudy
8:35 AM 51.8 °F 51.8 °F 100% 30.19 in 7.0 mi North - - N/A   Mostly Cloudy
9:15 AM 54.9 °F 54.7 °F 99% 30.20 in 10.0 mi North - - N/A   Mostly Cloudy
9:35 AM 57.7 °F 56.5 °F 96% 30.20 in 10.0 mi North - - N/A   Scattered Clouds
9:55 AM 59.2 °F 56.3 °F 90% 30.19 in 10.0 mi North - - N/A   Scattered Clouds
10:15 AM 63.7 °F 58.1 °F 82% 30.19 in 10.0 mi North - - N/A   Scattered Clouds
10:55 AM 69.4 °F 58.5 °F 68% 30.18 in 10.0 mi North - - N/A   Clear
11:15 AM 73.8 °F 59.0 °F 60% 30.18 in 10.0 mi North - - N/A   Clear
11:35 AM 74.3 °F 57.9 °F 57% 30.17 in 10.0 mi North - - N/A   Clear
11:55 AM 74.8 °F 57.2 °F 54% 30.17 in 10.0 mi North - - N/A   Clear
12:15 PM 77.0 °F 57.6 °F 51% 30.16 in 10.0 mi North - - N/A   Clear
12:35 PM 75.9 °F 55.9 °F 50% 30.14 in 10.0 mi North - - N/A   Clear
12:55 PM 77.7 °F 54.7 °F 45% 30.13 in 10.0 mi North - - N/A   Clear
1:15 PM 78.6 °F 54.0 °F 42% 30.12 in 10.0 mi North - - N/A   Clear
1:35 PM 79.5 °F 53.8 °F 41% 30.11 in 10.0 mi North - - N/A   Scattered Clouds
2:15 PM 78.4 °F 52.7 °F 41% 30.09 in 10.0 mi North - - N/A   Clear
2:35 PM 78.6 °F 51.8 °F 39% 30.08 in 10.0 mi North - - N/A   Scattered Clouds
2:55 PM 79.3 °F 51.8 °F 38% 30.08 in 10.0 mi North - - N/A   Overcast
3:15 PM 79.0 °F 51.8 °F 39% 30.07 in 10.0 mi North - - N/A   Overcast
3:35 PM 78.8 °F 51.3 °F 38% 30.06 in 10.0 mi North - - N/A   Mostly Cloudy
3:55 PM 77.9 °F 51.6 °F 40% 30.05 in 10.0 mi North - - N/A   Scattered Clouds
4:15 PM 77.9 °F 51.8 °F 40% 30.05 in 10.0 mi North - - N/A   Mostly Cloudy
4:35 PM 77.9 °F 53.4 °F 43% 30.04 in 10.0 mi North - - N/A   Mostly Cloudy
4:55 PM 77.0 °F 52.2 °F 42% 30.04 in 10.0 mi North - - N/A   Scattered Clouds
5:15 PM 76.5 °F 53.2 °F 44% 30.03 in 10.0 mi North - - N/A   Mostly Cloudy
5:35 PM 73.8 °F 58.5 °F 59% 30.04 in 10.0 mi North - - N/A   Mostly Cloudy
5:55 PM 70.9 °F 57.2 °F 62% 30.04 in 10.0 mi North - - N/A   Mostly Cloudy
6:15 PM 69.3 °F 57.4 °F 66% 30.04 in 10.0 mi North - - N/A   Overcast
6:35 PM 68.0 °F 57.0 °F 68% 30.05 in 10.0 mi North - - N/A   Overcast
6:55 PM 66.6 °F 57.2 °F 72% 30.05 in 10.0 mi North - - N/A   Overcast
7:15 PM 65.7 °F 56.8 °F 73% 30.05 in 10.0 mi North - - N/A   Overcast
7:35 PM 63.9 °F 56.3 °F 76% 30.05 in 10.0 mi North - - N/A   Mostly Cloudy
7:55 PM 63.3 °F 55.9 °F 77% 30.05 in 10.0 mi North - - N/A   Mostly Cloudy
8:15 PM 62.6 °F 55.9 °F 79% 30.05 in 10.0 mi North - - N/A   Mostly Cloudy
8:35 PM 61.9 °F 55.9 °F 81% 30.05 in 10.0 mi North - - N/A   Overcast
8:55 PM 61.9 °F 55.9 °F 81% 30.05 in 10.0 mi North - - N/A   Overcast
9:15 PM 62.4 °F 56.3 °F 80% 30.05 in 10.0 mi North - - N/A   Overcast
9:55 PM 60.4 °F 55.8 °F 85% 30.06 in 10.0 mi North - - N/A   Scattered Clouds
10:15 PM 59.7 °F 55.4 °F 86% 30.05 in 10.0 mi North - - N/A   Clear
10:35 PM 59.2 °F 55.4 °F 87% 30.05 in 10.0 mi North - - N/A   Mostly Cloudy
11:15 PM 61.0 °F 55.8 °F 83% 30.04 in 10.0 mi North - - N/A   Mostly Cloudy
11:35 PM 59.9 °F 55.8 °F 86% 30.04 in 10.0 mi North - - N/A   Mostly Cloudy
11:55 PM 58.6 °F 55.8 °F 90% 30.04 in 10.0 mi North - - N/A   Scattered Clouds